Location: Berg
(47.2344°N, 9.5296°E)
Time: 11:53:56
(UTC+00:00)

ERS-2 - Pass Details

Date: 24 January 2021
Orbit: 492 x 497 km, 98.6° (Epoch: 06 March)

Event Time Altitude Azimuth Distance (km) Brightness Sun altitude
Exits shadow 17:50:12 17° 21° (NNE) 1,321 4.0 -16.5°
Maximum altitude 17:52:55 71° 103° (ESE) 526 2.0 -17.0°
Drops below altitude 10° 17:56:32 10° 188° (S) 1,683 5.0 -17.6°
Sets 17:58:36 0° 191° (S) 2,559 6.0 -17.9°
